Tracking 19564 objects as of 19-Mar-2019
HD Live streaming from Space Station
objects crossing your sky now

SOYUZ MS-12

Track SOYUZ MS-12 now!
10-day predictions
SOYUZ MS-12 is classified as:


NORAD ID: 44069
Int'l Code: 2019-013A
Perigee: 413.0 km
Apogee: 418.3 km
Inclination: 51.6 °
Period: 92.7 minutes
Semi major axis: 6786 km
RCS: Unknown
Launch date: March 14, 2019
Source: Commonwealth of Independent States (former USSR) (CIS)
Launch site: TYURATAM MISSILE AND SPACE COMPLEX (TTMTR)
aabbcc
Your satellite tracking list
Your tracking list is empty




NASA's NSSDC Master Catalog

Two Line Element Set (TLE):
1 44069U 19013A   19077.54523375 +.00002037 +00000-0 +39742-4 0  9996
2 44069 051.6416 091.8453 0003889 114.4645 028.5746 15.52822916161170
Source of the keplerian elements: AFSPC